Location: Tucson
(32.2217°N, 110.9265°W)
Time: 09:54:48
(UTC-07:00)

STARLINK-3071 - Pass Details

Date: 28 September 2021
Orbit: 357 x 362 km, 70.0° (Epoch: 21 October)

Event Time Altitude Azimuth Distance (km) Brightness Sun altitude
Rises 05:35:13 0° 161° (SSE) 2,166 6.9 -9.4°
Reaches altitude 10° 05:38:12 10° 126° (SE) 1,330 6.4 -8.8°
Maximum altitude 05:39:17 12° 104° (ESE) 1,244 6.8 -8.6°
Drops below altitude 10° 05:40:22 10° 82° (E) 1,335 7.3 -8.4°
Sets 05:43:24 0° 47° (NE) 2,195 7.5 -7.7°
